TimeEST,TemperatureF,Dew PointF,Humidity,Sea Level PressureIn,VisibilityMPH,Wind Direction,Wind SpeedMPH,Gust SpeedMPH,PrecipitationIn,Events,Conditions,WindDirDegrees,DateUTC
12:15 AM,33.8,19.4,56,29.95,10.0,West,20.7,26.5,N/A,,Clear,260,2012-01-06 05:15:00
12:35 AM,33.8,19.4,56,29.95,10.0,West,21.9,27.6,N/A,,Clear,260,2012-01-06 05:35:00
12:55 AM,33.8,21.2,60,29.95,10.0,West,19.6,27.6,N/A,,Clear,260,2012-01-06 05:55:00
1:15 AM,33.8,21.2,60,29.95,10.0,West,21.9,28.8,N/A,,Clear,270,2012-01-06 06:15:00
1:35 AM,33.8,21.2,60,29.95,10.0,West,19.6,26.5,N/A,,Clear,260,2012-01-06 06:35:00
1:55 AM,33.8,21.2,60,29.95,10.0,West,20.7,26.5,N/A,,Clear,260,2012-01-06 06:55:00
2:15 AM,33.8,21.2,60,29.95,10.0,West,19.6,27.6,N/A,,Clear,260,2012-01-06 07:15:00
2:35 AM,33.8,21.2,60,29.96,10.0,West,24.2,28.8,N/A,,Clear,260,2012-01-06 07:35:00
2:55 AM,33.8,21.2,60,29.96,10.0,West,25.3,31.1,N/A,,Clear,270,2012-01-06 07:55:00
3:15 AM,35.6,21.2,56,29.96,10.0,West,24.2,29.9,N/A,,Clear,270,2012-01-06 08:15:00
3:35 AM,35.6,21.2,56,29.95,10.0,West,26.5,32.2,N/A,,Clear,270,2012-01-06 08:35:00
3:55 AM,35.6,21.2,56,29.95,10.0,West,21.9,31.1,N/A,,Clear,270,2012-01-06 08:55:00
4:15 AM,33.8,21.2,60,29.95,10.0,West,23.0,28.8,N/A,,Clear,270,2012-01-06 09:15:00
4:35 AM,35.6,21.2,56,29.95,10.0,West,21.9,31.1,N/A,,Clear,270,2012-01-06 09:35:00
5:15 AM,35.6,21.2,56,29.95,10.0,West,23.0,31.1,N/A,,Clear,270,2012-01-06 10:15:00
5:35 AM,35.6,21.2,56,29.96,10.0,West,26.5,29.9,N/A,,Clear,270,2012-01-06 10:35:00
5:55 AM,35.6,21.2,56,29.96,10.0,West,28.8,33.4,N/A,,Clear,270,2012-01-06 10:55:00
6:15 AM,35.6,21.2,56,29.97,10.0,West,23.0,-,N/A,,Clear,270,2012-01-06 11:15:00
6:35 AM,35.6,23.0,60,29.97,10.0,West,21.9,-,N/A,,Clear,270,2012-01-06 11:35:00
6:55 AM,35.6,23.0,60,29.97,10.0,West,23.0,29.9,N/A,,Clear,270,2012-01-06 11:55:00
7:15 AM,35.6,23.0,60,29.97,10.0,West,21.9,28.8,N/A,,Clear,270,2012-01-06 12:15:00
7:35 AM,35.6,23.0,60,29.97,10.0,West,25.3,33.4,N/A,,Clear,270,2012-01-06 12:35:00
8:15 AM,37.4,23.0,56,29.98,10.0,West,21.9,31.1,N/A,,Clear,270,2012-01-06 13:15:00
8:35 AM,37.4,23.0,56,29.99,10.0,West,24.2,28.8,N/A,,Clear,270,2012-01-06 13:35:00
8:55 AM,37.4,23.0,56,29.99,10.0,West,25.3,29.9,N/A,,Clear,270,2012-01-06 13:55:00
9:15 AM,39.2,23.0,52,30.00,10.0,West,23.0,29.9,N/A,,Clear,270,2012-01-06 14:15:00
9:55 AM,39.2,23.0,52,30.00,10.0,West,18.4,24.2,N/A,,Clear,280,2012-01-06 14:55:00
10:35 AM,42.8,24.8,49,30.00,10.0,West,17.3,27.6,N/A,,Clear,280,2012-01-06 15:35:00
10:55 AM,42.8,24.8,49,29.99,10.0,West,21.9,25.3,N/A,,Clear,270,2012-01-06 15:55:00
11:35 AM,44.6,24.8,46,29.98,10.0,West,16.1,23.0,N/A,,Clear,280,2012-01-06 16:35:00
11:55 AM,46.4,24.8,43,29.98,10.0,West,17.3,23.0,N/A,,Clear,270,2012-01-06 16:55:00
12:15 PM,46.4,26.6,46,29.97,10.0,West,13.8,24.2,N/A,,Clear,260,2012-01-06 17:15:00
12:57 PM,48.2,26.6,43,29.96,10.0,West,20.7,27.6,N/A,,Clear,270,2012-01-06 17:57:00
1:15 PM,48.2,26.6,43,29.96,10.0,West,16.1,24.2,N/A,,Clear,260,2012-01-06 18:15:00
1:35 PM,50.0,26.6,40,29.95,10.0,West,18.4,23.0,N/A,,Clear,260,2012-01-06 18:35:00
1:55 PM,50.0,26.6,40,29.94,10.0,West,17.3,25.3,N/A,,Clear,280,2012-01-06 18:55:00
2:15 PM,51.8,26.6,38,29.94,10.0,West,20.7,24.2,N/A,,Clear,280,2012-01-06 19:15:00
2:35 PM,51.8,26.6,38,29.94,10.0,West,16.1,24.2,N/A,,Clear,270,2012-01-06 19:35:00
2:55 PM,51.8,26.6,38,29.95,10.0,West,16.1,23.0,N/A,,Clear,260,2012-01-06 19:55:00
3:15 PM,51.8,24.8,35,29.95,10.0,West,20.7,28.8,N/A,,Clear,260,2012-01-06 20:15:00
4:15 PM,51.8,24.8,35,29.95,10.0,West,16.1,21.9,N/A,,Clear,260,2012-01-06 21:15:00
4:35 PM,50.0,24.8,37,29.96,10.0,West,16.1,21.9,N/A,,Clear,260,2012-01-06 21:35:00
4:56 PM,48.2,23.0,37,29.96,10.0,West,19.6,25.3,N/A,,Clear,260,2012-01-06 21:56:00
5:15 PM,48.2,21.2,34,29.96,10.0,West,18.4,21.9,N/A,,Clear,260,2012-01-06 22:15:00
6:16 PM,46.4,23.0,40,29.96,10.0,WSW,18.4,-,N/A,,Clear,250,2012-01-06 23:16:00
6:35 PM,46.4,23.0,40,29.95,10.0,WSW,18.4,-,N/A,,Clear,250,2012-01-06 23:35:00
6:55 PM,46.4,21.2,37,29.95,10.0,WSW,19.6,-,N/A,,Clear,250,2012-01-06 23:55:00
7:16 PM,46.4,21.2,37,29.96,10.0,West,18.4,-,N/A,,Clear,260,2012-01-07 00:16:00
7:36 PM,46.4,21.2,37,29.95,10.0,West,19.6,23.0,N/A,,Clear,260,2012-01-07 00:36:00
7:56 PM,46.4,-9999,N/A,29.95,10.0,West,20.7,27.6,N/A,,Clear,260,2012-01-07 00:56:00
8:15 PM,44.6,21.2,39,29.95,10.0,West,17.3,24.2,N/A,,Clear,260,2012-01-07 01:15:00
8:36 PM,44.6,21.2,39,29.95,10.0,West,17.3,-,N/A,,Clear,260,2012-01-07 01:36:00
9:15 PM,44.6,19.4,37,29.94,10.0,West,18.4,-,N/A,,Clear,260,2012-01-07 02:15:00
9:36 PM,44.6,21.2,39,29.94,10.0,West,19.6,24.2,N/A,,Clear,260,2012-01-07 02:36:00
9:55 PM,44.6,21.2,39,29.94,10.0,West,18.4,-,N/A,,Clear,260,2012-01-07 02:55:00
10:15 PM,42.8,21.2,42,29.94,10.0,West,19.6,-,N/A,,Clear,270,2012-01-07 03:15:00
10:35 PM,42.8,19.4,39,29.94,10.0,West,21.9,29.9,N/A,,Clear,270,2012-01-07 03:35:00
10:58 PM,44.6,19.4,37,29.93,10.0,West,23.0,29.9,N/A,,Clear,270,2012-01-07 03:58:00
11:15 PM,42.8,19.4,39,29.93,10.0,West,23.0,32.2,N/A,,Clear,270,2012-01-07 04:15:00
11:38 PM,42.8,19.4,39,29.93,10.0,West,24.2,31.1,N/A,,Clear,270,2012-01-07 04:38:00
11:55 PM,42.8,19.4,39,29.92,10.0,West,26.5,35.7,N/A,,Clear,270,2012-01-07 04:55:00